Tracking 19795 objects as of 20-Jul-2019
HD Live streaming from Space Station
objects crossing your sky now

BREEZE-M DEB (TANK)

Track BREEZE-M DEB (TANK) now!


NORAD ID: 33597
Int'l Code: 2009-007C
Perigee: 172.4 km
Apogee: 34,903.6 km
Inclination: 44.3 °
Period: 613.2 minutes
Semi major axis: 23909 km
RCS: 4.8079 m2 (large)
Launch date: February 11, 2009
Source: Commonwealth of Independent States (former USSR) (CIS)
Launch site: TYURATAM MISSILE AND SPACE COMPLEX (TTMTR)

Note: This is SATELLITE DEBRIS
aabbcc
Your satellite tracking list
Your tracking list is empty




NASA's NSSDC Master Catalog

Two Line Element Set (TLE):
1 33597U 09007C   19200.16005856  .00019308 -69794-7  48345-3 0  9997
2 33597  44.3463 107.0380 7263207 113.5986 334.2935  2.34833531 87413
Source of the keplerian elements: AFSPC